Weather History for KPKD - December, 2012

Change the Weather History Date:

Tuesday, December 25, 2012

  Actual Average Record
Temperature  
Mean Temperature -8 °F -  
Max Temperature 5 °F 16 °F 43 °F (1994)
Min Temperature -20 °F -5 °F -32 °F (1968)
Degree Days  
Heating Degree Days 72    
Moisture  
Dew Point -14 °F    
Average Humidity 78    
Maximum Humidity 83    
Minimum Humidity 73    
Precipitation  
Precipitation 0.00 in - - ()
Sea Level Pressure  
Sea Level Pressure 30.52 in    
Wind  
Wind Speed 5 mph (WNW)    
Max Wind Speed 8 mph    
Max Gust Speed -    
Visibility 10 miles    
Events      
Averages and records for this station are not official NWS values.
T = Trace of Precipitation, MM = Missing Value Source: NWS Daily Summary

Daily Weather History Graph

Daily Weather History Graph

Search for Another Location

Airport or City:

Trip Planner

Search our weather history database for the weather conditions in past years. The results will help you decide how hot, cold, wet, or windy it might be!

Date:

Astronomy

Dec. 25, 2012 Rise Set
Actual Time 8:04 AM CST 4:36 PM CST
Civil Twilight 7:29 AM CST 5:12 PM CST
Nautical Twilight 6:50 AM CST 5:50 PM CST
Astronomical Twilight 6:13 AM CST 6:27 PM CST
Moon 2:48 PM CST (12/25) 5:34 AM CST (12/25)
Length of Visible Light 9h 42m
Length of Day
8h 32m
Waxing Gibbous, 94% of the Moon is Illuminated
Dec 25
Waxing Gibbous
Dec 28
Full
Jan 4
Last Quarter
Jan 11
New
Jan 18
First Quarter

Hourly Weather History & Observations

Time (CST) Temp. Windchill Dew Point Humidity Pressure Visibility Wind Dir Wind Speed Gust Speed Precip Events Conditions
12:53 AM -14.1 °F -23.9 °F -18.0 °F 82% 30.43 in 10.0 mi WNW 3.5 mph - N/A   Clear
1:53 AM -13.0 °F -27.0 °F -18.0 °F 78% 30.43 in 10.0 mi NW 5.8 mph - N/A   Clear
2:53 AM -16.1 °F -32.3 °F -20.9 °F 79% 30.47 in 10.0 mi West 6.9 mph - N/A   Clear
3:53 AM -18.9 °F -34.0 °F -24.0 °F 78% 30.49 in 10.0 mi West 5.8 mph - N/A   Clear
4:53 AM -16.1 °F -30.6 °F -20.0 °F 82% 30.50 in 10.0 mi WNW 5.8 mph - N/A   Clear
5:53 AM -15.0 °F -29.3 °F -20.0 °F 78% 30.51 in 10.0 mi WNW 5.8 mph - N/A   Clear
6:53 AM -17.0 °F -29.7 °F -22.0 °F 78% 30.54 in 10.0 mi WNW 4.6 mph - N/A   Clear
7:53 AM -20.0 °F -33.3 °F -25.1 °F 78% 30.56 in 10.0 mi West 4.6 mph - N/A   Clear
8:53 AM -16.1 °F -26.2 °F -22.0 °F 74% 30.57 in 10.0 mi WNW 3.5 mph - N/A   Clear
9:53 AM -11.0 °F -20.4 °F -16.1 °F 78% 30.58 in 10.0 mi WNW 3.5 mph - N/A   Clear
10:53 AM -6.0 °F -14.7 °F -11.0 °F 79% 30.57 in 10.0 mi WNW 3.5 mph - N/A   Clear
11:53 AM -2.9 °F - -8.0 °F 79% 30.54 in 10.0 mi Calm Calm - N/A   Clear
12:53 PM 1.9 °F -9.2 °F -4.0 °F 76% 30.53 in 10.0 mi West 5.8 mph - N/A   Clear
1:53 PM 5.0 °F -5.6 °F -2.0 °F 73% 30.51 in 10.0 mi NW 5.8 mph - N/A   Clear
2:53 PM 5.0 °F -2.1 °F -2.0 °F 73% 30.52 in 10.0 mi West 3.5 mph - N/A   Clear
3:53 PM 1.0 °F -10.3 °F -5.1 °F 75% 30.52 in 10.0 mi West 5.8 mph - N/A   Clear
4:53 PM -4.0 °F -14.6 °F -8.0 °F 83% 30.51 in 10.0 mi WNW 4.6 mph - N/A   Clear
5:53 PM -9.9 °F -26.3 °F -14.1 °F 82% 30.53 in 10.0 mi West 8.1 mph - N/A   Clear
6:53 PM -9.0 °F -22.3 °F -13.0 °F 83% 30.55 in 10.0 mi West 5.8 mph - N/A   Clear
7:53 PM -7.1 °F -15.9 °F -11.9 °F 79% 30.57 in 10.0 mi WSW 3.5 mph - N/A   Clear
8:53 PM -7.1 °F -15.9 °F -11.9 °F 79% 30.55 in 10.0 mi WNW 3.5 mph - N/A   Clear
9:53 PM -8.0 °F -21.0 °F -13.0 °F 79% 30.53 in 10.0 mi WNW 5.8 mph - N/A   Clear
10:53 PM -7.1 °F - -11.9 °F 79% 30.51 in 10.0 mi Calm Calm - N/A   Clear
11:53 PM -6.0 °F - -11.0 °F 79% 30.49 in 10.0 mi Calm Calm - N/A   Partly Cloudy